Погода в Тивате

Черногория     42°25′59″N   18°41′51″E
темп.,
°C
ветер,
м/с
пор.,
м/с
влажн.,
%
обл.,
%
осадки,
мм/ч
давл.,
гПа
погр.,
м
13 мая, чт
чт1323:00+9св11815 0.0 101113
02:00+8св218121 0.0 101117
05:00+9в1177100 0.0 100916
08:00+12ю248091 0.4 1008528
11:00+10ююз3590100 1.9 1009596
14:00+11ю359065 3.3 1010637
17:00+11ююз358779 2.3 1010688
20:00+8вюв119714 3.2 101124
14 мая, пт
пт1423:00+8всв229687 0.9 101147
02:00+8св2197100 3.2 101136
05:00+7всв229893 1.7 101147
08:00+10ююз358921 3.0 1012559
11:00+14ююз46591 0.3 10131446
14:00+15ююз48542 0.6 10131715
17:00+14ююз345382 0.0 10131176
20:00+9в1188100 0.0 101310
15 мая, сб
сб1523:00+9всв218481 0.1 101321
02:00+9св2396100 1.4 101270
05:00+9вюв1399100 6.5 1012170
08:00+9св129692 8.1 101293
11:00+11всв229043 0.9 1012460
14:00+11вюв1291100 2.3 1012282
17:00+10ссв119076 0.6 1012247
20:00+9юз009248 0.7 101211
16 мая, вс
вс1623:00+9с119199 0.1 101313
02:00+7ссв219373 0.1 101318
05:00+7ссв229416 0.0 101220
08:00+11юв118393 0.0 1012323
11:00+14юз227584 0.1 1012888
14:00+16зюз326839 0.6 1011977
17:00+15юз1169100 0.3 1011558
20:00+12ююв118880 0.3 101117
17 мая, пн
пн1723:00+11вюв119057 0.0 101216
02:00+11в1183100 0.0 101126
05:00+11юв127782 0.0 101034
08:00+13юв247867 0.0 1010282
11:00+16ю456851 0.1 10101080
14:00+17ю456859 0.2 10111001
17:00+17ююв346683 0.0 10101046
20:00+12в229386 0.1 101031